Regional Weather Roundup
Issued by NWS

Home | Current Version | Previous Version | Graphics & Text | Print | Product List | Glossary Off
Versions: 1 2 3 4 5 6 7 8 9 10 11 12 13 14 15 16 17 18 19 20 21 22 23 24 25 26 27 28 29 30 31 32 33 34 35 36 37 38 39 40 41 42 43 44 45 46 47 48 49 50

000
ASUS43 KTOP 271359
RWRKS

WEATHER ROUNDUP FOR KANSAS
NATIONAL WEATHER SERVICE GOODLAND KS
800 AM CST MON FEB 27 2017

NOTE:  "FAIR" INDICATES FEW OR NO CLOUDS BELOW 12,000 FEET WITH NO
SIGNIFICANT WEATHER AND/OR OBSTRUCTIONS TO VISIBILITY.

KSZ001>006-013>018-027>032-041>047-271500-
NORTHWEST KANSAS

CITY           SKY/WX    TMP DP  RH WIND       PRES   REMARKS
GOODLAND       CLOUDY    19  16  88 N5        29.77S
HILL CITY      CLOUDY    22  19  89 E3        29.87F
RUSSELL        CLEAR     30  24  78 SE10      29.88F WCI  21
$$

KSZ061>065-074>080-084>089-271500-
SOUTHWEST KANSAS

CITY           SKY/WX    TMP DP  RH WIND       PRES   REMARKS
DODGE CITY     CLOUDY    29  26  89 S12       29.84S WCI  19
ELKHART          N/A     27   8  44 W9          N/A
GARDEN CITY    CLOUDY    23  20  88 S8        29.81S
GREAT BEND     CLEAR     31  27  85 SE13      29.89F WCI  21
LIBERAL        CLOUDY    27  21  80 SW10      29.83R WCI  17
$$

KSZ066>073-081>083-090>101-271500-
SOUTHEAST KANSAS

CITY           SKY/WX    TMP DP  RH WIND       PRES   REMARKS
CHANUTE        MOSUNNY   33  30  88 E7        30.01S
COFFEYVILLE    MOSUNNY   33  31  92 NE5       30.02R FOG
HUTCHINSON     CLEAR     34  28  79 SE13      29.92F WCI  25
MEDICINE LODGE   N/A     33  29  85 SE6       29.91R
NEWTON         SUNNY     32  29  88 SE10      29.95S WCI  24
PARSONS        SUNNY     34  30  85 E5        30.02R
WICHITA INTL   MOSUNNY   37  31  78 E9        29.94S
WICHITA JABRA  SUNNY     33  30  88 E7        29.94F
WINFIELD       MOSUNNY   36  30  79 E8        29.96S
$$

KSZ007>012-019>026-033>040-048>060-102>105-271500-
NORTHEAST KANSAS

CITY           SKY/WX    TMP DP  RH WIND       PRES   REMARKS
CONCORDIA      CLEAR     23  19  85 CALM      29.93S
EMPORIA        MOSUNNY   28  28 100 S6        30.00R FOG
LAWRENCE       FOG       27  27 100 E5        30.04R VSB<1/4
MANHATTAN      SUNNY     30  26  85 CALM      29.97F
OLATHE IND     SUNNY     31  31 100 SE10      30.03R WCI  22
OLATHE EXE     FOG       27  27 100 S6        30.03R VSB 1/4
SALINA         CLEAR     34  28  79 S10       29.95S WCI  26
TOPEKA BILLARD FOG       28  28 100 E5        30.02R VSB 1/4
TOPEKA FORBES  FOG       30  26  85 SE5       30.01R VSB 1
$$



USA.gov is the U.S. government's official web portal to all federal, state and local government web resources and services.